Find UHF F/O F1

NORAD ID: 22563 Int'l Des: 1993-015 Owner: HCI Country: US operational
HEOCIRCULAR

实时位置

正在加载3D地球...

关于 UHF F/O F1

正在加载描述...

即将过境

Passes for default location (London). Set your location on the main map for personalized predictions.

高度历史

Loading altitude history...

两行轨道根数

1 22563U 93015A 26105.52184497 .00000099 00000-0 00000-0 0 9998
2 22563 25.6613 73.2701 0006088 283.9262 76.3258 0.99250703124088
Epoch: Apr 15, 2026 • Age: 43 hours

当前状态

高度 36055.7 km
速度 3.07 km/s
星下点 -24.82°S, 36.82°E
发射日期 Mar 25, 1993
运行时间 33 years
类型 other

技术详情

分类 Payload
质量 2840.00 kg
干质量 1000.00 kg
总质量 2840.00 kg
长度 4.00 m
直径 3.00 m
跨度 18.30 m
形状 Box + 2 Pan
制造商 HSES
平台类型 HS-601
阶段状态 In Orbit
所有者/国家 HCI/US

Most Searched